GW5652 Weather Reports


time (UTC)temp
C
wind
direction
speed
KPH
gust
KPH
rain 1hr
cm
rain 24hr
cm
rain mn
cm
humidity
%
barometer
mb
20260505122138 10 247 4.8 6.4 0.00 0.00 0.00 88 1015.4
20260505121634 10 292 0.0 4.8 0.00 0.00 0.00 88 1015.5
20260505121131 10 217 3.2 8.0 0.00 0.00 0.00 88 1015.5
20260505120627 10 210 1.6 4.8 0.00 0.00 0.00 89 1015.5
20260505120124 10 291 1.6 4.8 0.00 0.00 0.00 90 1015.5
20260505115623 10 162 3.2 4.8 0.00 0.00 0.00 89 1015.5
20260505115121 10 196 1.6 4.8 0.00 0.00 0.00 89 1015.6
20260505114618 10 187 0.0 4.8 0.00 0.00 0.00 89 1015.5
20260505114114 10 253 1.6 4.8 0.00 0.00 0.00 89 1015.6
20260505113611 10 89 0.0 3.2 0.00 0.00 0.00 89 1015.6
20260505113108 10 200 0.0 3.2 0.00 0.00 0.00 89 1015.3
20260505112604 10 186 0.0 3.2 0.00 0.00 0.00 89 1015.5
20260505112103 10 248 3.2 4.8 0.00 0.00 0.00 89 1015.4
20260505111601 10 184 0.0 3.2 0.00 0.00 0.00 89 1015.5
20260505111057 10 136 3.2 4.8 0.00 0.00 0.00 89 1015.2
20260505110554 10 196 1.6 4.8 0.00 0.00 0.00 89 1015.2
20260505102027 10 256 3.2 11.3 0.00 0.00 0.00 88 1015.0
20260505101525 10 260 4.8 8.0 0.00 0.00 0.00 89 1014.8
20260505101021 10 268 4.8 6.4 0.00 0.00 0.00 90 1015.1
20260505100519 10 244 0.0 4.8 0.00 0.00 0.00 91 1015.1
20260505100015 10 164 0.0 3.2 0.00 0.00 0.00 91 1015.2
20260505095511 10 137 1.6 4.8 0.00 0.00 0.00 92 1015.1
20260505095008 10 207 1.6 4.8 0.00 0.00 0.00 93 1015.2
20260505094504 10 235 0.0 4.8 0.00 0.00 0.00 93 1015.0
20260505094000 9 183 4.8 8.0 0.00 0.00 0.00 93 1015.1
20260505093457 9 194 4.8 6.4 0.00 0.00 0.00 93 1015.0
20260505092954 9 189 4.8 8.0 0.00 0.00 0.00 93 1015.1
20260505092452 9 190 4.8 6.4 0.00 0.00 0.00 93 1015.1
20260505091949 9 206 3.2 8.0 0.00 0.00 0.00 93 1014.9
20260505091447 9 191 0.0 6.4 0.00 0.00 0.00 93 1015.1
20260505090945 9 191 4.8 6.4 0.00 0.00 0.00 93 1014.9
20260505090443 9 240 1.6 4.8 0.00 0.00 0.00 92 1014.7
20260505085940 9 260 0.0 3.2 0.00 0.00 0.00 92 1014.9
20260505085438 10 173 3.2 8.0 0.00 0.00 0.00 91 1015.0
20260505084936 10 171 4.8 6.4 0.00 0.00 0.00 91 1014.9
20260505084434 10 164 3.2 8.0 0.00 0.00 0.00 90 1014.7
20260505083931 10 177 3.2 6.4 0.00 0.00 0.00 90 1014.7
20260505083428 10 186 3.2 4.8 0.00 0.00 0.00 90 1014.8
20260505082924 10 183 3.2 6.4 0.00 0.00 0.00 90 1014.6
20260505082420 10 147 3.2 6.4 0.00 0.00 0.00 90 1014.7
20260505081918 10 144 1.6 4.8 0.00 0.00 0.00 89 1014.7
20260505081415 10 167 3.2 4.8 0.00 0.00 0.00 89 1014.7
20260505080911 10 182 1.6 6.4 0.00 0.00 0.00 89 1014.6
20260505080407 10 178 1.6 4.8 0.00 0.00 0.00 89 1014.5
20260505075902 10 167 1.6 6.4 0.00 0.00 0.00 89 1014.4
20260505075359 10 230 6.4 9.7 0.00 0.00 0.00 88 1014.8
20260505074857 10 259 3.2 8.0 0.00 0.00 0.00 88 1014.5
20260505074354 10 180 0.0 1.6 0.00 0.00 0.00 89 1014.4
20260505073851 10 220 0.0 3.2 0.00 0.00 0.00 88 1014.5
20260505073349 10 241 1.6 6.4 0.00 0.00 0.00 88 1014.5
20260505072846 11 316 3.2 6.4 0.00 0.00 0.00 88 1014.4
20260505072342 10 217 0.0 3.2 0.00 0.00 0.00 88 1014.5
20260505071838 10 290 1.6 8.0 0.00 0.00 0.00 88 1014.3
20260505071334 11 167 0.0 8.0 0.00 0.00 0.00 88 1014.3
20260505070833 11 260 6.4 8.0 0.00 0.00 0.00 88 1014.2
20260505070329 11 224 4.8 12.9 0.00 0.00 0.00 88 1014.2
20260505065824 10 260 4.8 9.7 0.00 0.00 0.00 88 1014.3
20260505065321 11 214 1.6 11.3 0.00 0.00 0.00 88 1014.3
20260505064818 11 275 4.8 16.1 0.00 0.00 0.00 87 1014.2
20260505064315 11 253 6.4 9.7 0.00 0.00 0.00 87 1014.2
20260505063814 11 282 11.3 17.7 0.00 0.00 0.00 87 1014.2
20260505063309 11 260 8.0 16.1 0.00 0.00 0.00 87 1014.0
20260505062806 11 254 12.9 19.3 0.00 0.00 0.00 87 1014.2
20260505062304 11 283 4.8 20.9 0.00 0.00 0.00 87 1014.3
20260505061800 11 285 8.0 19.3 0.00 0.00 0.00 87 1014.2
20260505061258 11 266 8.0 16.1 0.00 0.00 0.00 87 1014.1
20260505060755 11 281 11.3 16.1 0.00 0.00 0.00 87 1014.2
20260505060252 11 261 3.2 11.3 0.00 0.00 0.00 87 1014.1
20260505055747 11 265 9.7 20.9 0.00 0.00 0.00 87 1014.1
20260505055244 11 296 12.9 19.3 0.00 0.00 0.00 87 1014.1
20260505054742 11 261 11.3 17.7 0.00 0.00 0.00 87 1014.1
20260505054239 11 306 9.7 22.5 0.00 0.00 0.00 87 1014.0
20260505053737 11 308 6.4 16.1 0.00 0.00 0.00 86 1014.3
20260505053233 11 263 14.5 16.1 0.00 0.00 0.00 87 1013.9
20260505052731 11 275 11.3 17.7 0.00 0.00 0.00 87 1014.0
20260505052227 11 300 6.4 20.9 0.00 0.00 0.00 86 1014.2
20260505051725 11 271 12.9 19.3 0.00 0.00 0.00 86 1013.8
20260505051223 11 259 19.3 20.9 0.00 0.00 0.00 86 1014.1
20260505050720 11 269 19.3 19.3 0.00 0.00 0.00 86 1014.0
20260505050219 11 261 17.7 20.9 0.00 0.00 0.00 86 1013.9
20260505041648 11 301 9.7 24.1 0.00 0.00 0.00 85 1013.2
20260505041146 11 320 17.7 20.9 0.00 0.00 0.00 85 1013.5
20260505040643 11 321 11.3 25.7 0.00 0.00 0.00 85 1013.3
20260505040140 11 306 17.7 45.1 0.00 0.00 0.00 84 1012.9
20260505035636 12 283 16.1 30.6 0.00 0.00 0.00 84 1012.9
20260505035132 12 313 16.1 38.6 0.00 0.00 0.00 84 1013.1
20260505034629 12 280 11.3 29.0 0.00 0.00 0.00 84 1012.7
20260505034126 12 273 33.8 33.8 0.00 0.00 0.00 83 1012.7
20260505033622 12 280 19.3 22.5 0.00 0.00 0.00 83 1012.9
20260505033121 12 298 17.7 35.4 0.00 0.00 0.00 82 1012.9
20260505032619 12 313 20.9 35.4 0.00 0.00 0.00 82 1012.7
20260505032115 12 300 14.5 30.6 0.00 0.00 0.00 81 1012.8
20260505031612 12 279 12.9 32.2 0.00 0.00 0.00 81 1012.6
20260505031108 12 305 14.5 22.5 0.00 0.00 0.00 81 1012.3
20260505030605 13 290 14.5 20.9 0.00 0.00 0.00 80 1012.7
20260505025557 13 313 20.9 35.4 0.00 0.00 0.00 79 1012.5
20260505025056 13 287 11.3 24.1 0.00 0.00 0.00 79 1012.6
20260505024553 13 272 11.3 30.6 0.00 0.00 0.00 78 1012.4
20260505024050 14 263 16.1 32.2 0.00 0.00 0.00 77 1012.2
20260505023547 14 300 19.3 40.2 0.00 0.00 0.00 75 1012.3
20260505023044 15 304 22.5 35.4 0.00 0.00 0.00 74 1012.3
20260505022542 15 311 32.2 35.4 0.00 0.00 0.00 74 1012.1
20260505022039 15 295 16.1 27.4 0.00 0.00 0.00 73 1012.4
20260505021535 15 259 16.1 27.4 0.00 0.00 0.00 72 1012.2
20260505021027 15 310 14.5 35.4 0.00 0.00 0.00 72 1012.5
20260505020526 16 262 11.3 38.6 0.00 0.00 0.00 71 1012.4
20260505020024 16 299 8.0 29.0 0.00 0.00 0.00 71 1012.4
20260505015521 16 287 8.0 22.5 0.00 0.00 0.00 71 1012.3
20260505015017 16 258 24.1 29.0 0.00 0.00 0.00 71 1012.1
20260505014514 16 312 19.3 30.6 0.00 0.00 0.00 69 1012.2
20260505014012 17 285 12.9 22.5 0.00 0.00 0.00 70 1012.4
20260505013509 17 271 9.7 24.1 0.00 0.00 0.00 68 1012.3
20260505013006 17 319 14.5 19.3 0.00 0.00 0.00 67 1012.2
20260505012504 17 273 11.3 27.4 0.00 0.00 0.00 67 1012.4
20260505012000 17 295 11.3 24.1 0.00 0.00 0.00 68 1012.2
20260505011456 17 293 14.5 32.2 0.00 0.00 0.00 67 1012.3
20260505010953 17 302 9.7 30.6 0.00 0.00 0.00 67 1012.2
20260505010449 18 312 12.9 20.9 0.00 0.00 0.00 66 1012.4
20260505005945 17 286 9.7 37.0 0.00 0.00 0.00 65 1012.4
20260505005442 18 285 17.7 41.8 0.00 0.00 0.00 66 1012.8
20260505004940 18 313 8.0 20.9 0.00 0.00 0.00 66 1012.3
20260505004436 18 303 14.5 35.4 0.00 0.00 0.00 66 1012.7
20260505003933 18 283 12.9 30.6 0.00 0.00 0.00 67 1012.3
20260505003430 18 296 11.3 29.0 0.00 0.00 0.00 66 1012.5
20260505002926 18 310 17.7 41.8 0.00 0.00 0.00 65 1012.3
20260505002423 19 302 17.7 27.4 0.00 0.00 0.00 64 1012.4
20260505001921 19 281 12.9 24.1 0.00 0.00 0.00 66 1012.3
20260505001419 19 281 11.3 20.9 0.00 0.00 0.00 66 1012.3
20260505000916 20 290 9.7 25.7 0.00 0.00 0.00 64 1012.3
20260505000414 20 315 27.4 27.4 0.00 0.00 0.00 63 1012.4
20260504235910 20 308 9.7 24.1 0.00 0.00 0.00 64 1012.4
20260504235407 20 278 8.0 22.5 0.00 0.00 0.00 63 1012.4
20260504234903 20 291 22.5 27.4 0.00 0.00 0.00 63 1012.7
20260504234401 20 294 9.7 20.9 0.00 0.00 0.00 63 1012.5
20260504233857 20 310 16.1 24.1 0.00 0.00 0.00 62 1012.3
20260504233353 20 297 6.4 17.7 0.00 0.00 0.00 63 1012.5
20260504232850 20 269 11.3 22.5 0.00 0.00 0.00 62 1012.5
20260504232347 20 290 8.0 20.9 0.00 0.00 0.00 62 1012.6
20260504231844 21 292 8.0 22.5 0.00 0.00 0.00 64 1012.5
20260504231340 20 279 12.9 19.3 0.00 0.00 0.00 62 1012.4
20260504230836 21 303 6.4 16.1 0.00 0.00 0.00 63 1012.6
20260504230334 21 334 4.8 16.1 0.00 0.00 0.00 61 1012.5
20260504225833 21 297 6.4 8.0 0.00 0.00 0.00 59 1012.5
20260504225329 21 339 1.6 9.7 0.00 0.00 0.00 63 1012.5
20260504224827 21 233 4.8 16.1 0.00 0.00 0.00 64 1012.8
20260504224323 21 111 11.3 22.5 0.00 0.00 0.00 65 1012.6
20260504223820 21 217 4.8 8.0 0.00 0.00 0.00 64 1012.6
20260504223315 21 154 11.3 19.3 0.00 0.00 0.00 65 1012.8
20260504222812 21 162 16.1 16.1 0.00 0.00 0.00 65 1012.9
20260504222309 20 160 17.7 19.3 0.00 0.00 0.00 67 1012.8
20260504221808 20 115 8.0 14.5 0.00 0.00 0.00 66 1012.7
20260504221304 20 155 11.3 17.7 0.00 0.00 0.00 67 1012.9
20260504220801 20 158 16.1 17.7 0.00 0.00 0.00 69 1012.9
20260504220258 20 156 8.0 19.3 0.00 0.00 0.00 68 1013.0
20260504215755 20 154 8.0 22.5 0.00 0.00 0.00 68 1013.1
20260504215251 20 155 11.3 22.5 0.00 0.00 0.00 67 1013.1
20260504214747 20 160 14.5 19.3 0.00 0.00 0.00 69 1013.0
20260504214244 20 141 8.0 20.9 0.00 0.00 0.00 69 1013.1
20260504213741 20 147 8.0 22.5 0.00 0.00 0.00 68 1013.2
20260504213237 20 160 17.7 17.7 0.00 0.00 0.00 69 1013.1
20260504212734 20 158 19.3 19.3 0.00 0.00 0.00 68 1013.2
20260504212231 20 152 11.3 22.5 0.00 0.00 0.00 68 1013.3
20260504211728 18 165 16.1 20.9 0.00 0.00 0.00 70 1013.3
20260504211224 19 113 11.3 19.3 0.00 0.00 0.00 69 1013.4
20260504210722 19 157 12.9 19.3 0.00 0.00 0.00 70 1013.3
20260504210219 18 160 19.3 20.9 0.00 0.00 0.00 69 1013.6
20260504205716 18 142 9.7 22.5 0.00 0.00 0.00 70 1013.4
20260504205214 19 170 17.7 20.9 0.00 0.00 0.00 69 1013.5
20260504204712 19 155 9.7 16.1 0.00 0.00 0.00 70 1013.7
20260504204210 18 146 14.5 17.7 0.00 0.00 0.00 70 1013.8
20260504203709 18 150 11.3 19.3 0.00 0.00 0.00 70 1013.9
20260504203206 18 157 8.0 20.9 0.00 0.00 0.00 72 1013.9
20260504202706 18 163 17.7 24.1 0.00 0.00 0.00 71 1013.8
20260504202203 18 157 8.0 16.1 0.00 0.00 0.00 72 1014.0
20260504201700 18 147 6.4 22.5 0.00 0.00 0.00 69 1013.9
20260504201157 18 160 6.4 17.7 0.00 0.00 0.00 72 1014.0
20260504200655 18 163 20.9 20.9 0.00 0.00 0.00 70 1013.9
20260504200151 18 152 11.3 19.3 0.00 0.00 0.00 71 1014.0
20260504195647 18 117 11.3 17.7 0.00 0.00 0.00 71 1014.2
20260504195143 17 164 4.8 9.7 0.00 0.00 0.00 70 1013.8
20260504194640 18 155 8.0 16.1 0.00 0.00 0.00 71 1013.9
20260504194136 19 141 14.5 14.5 0.00 0.00 0.00 67 1014.1
20260504193633 17 155 4.8 16.1 0.00 0.00 0.00 71 1014.1
20260504193131 18 51 8.0 9.7 0.00 0.00 0.00 70 1014.2
20260504192629 17 153 6.4 11.3 0.00 0.00 0.00 72 1014.1
20260504192126 18 149 19.3 19.3 0.00 0.00 0.00 70 1014.0
20260504191625 18 218 6.4 14.5 0.00 0.00 0.00 70 1014.2
20260504191121 18 112 0.0 3.2 0.00 0.00 0.00 70 1014.0
20260504190617 17 94 9.7 17.7 0.00 0.00 0.00 74 1014.2
20260504190114 17 160 12.9 19.3 0.00 0.00 0.00 72 1014.1
20260504185610 17 158 17.7 17.7 0.00 0.00 0.00 72 1014.2
20260504185107 17 134 4.8 16.1 0.00 0.00 0.00 72 1014.3
20260504184602 17 117 8.0 17.7 0.00 0.00 0.00 71 1014.3
20260504184057 17 113 11.3 16.1 0.00 0.00 0.00 72 1014.4
20260504183555 16 37 0.0 12.9 0.00 0.00 0.00 73 1014.6
20260504183053 17 104 14.5 14.5 0.00 0.00 0.00 73 1014.3
20260504182550 16 146 11.3 19.3 0.00 0.00 0.00 75 1014.4
20260504182047 16 155 9.7 20.9 0.00 0.00 0.00 75 1014.4
20260504181544 16 137 8.0 16.1 0.00 0.00 0.00 76 1014.4
20260504181042 16 145 4.8 14.5 0.00 0.00 0.00 76 1014.4
20260504180541 16 115 8.0 12.9 0.00 0.00 0.00 73 1014.4
20260504180039 16 147 0.0 6.4 0.00 0.00 0.00 75 1014.4
20260504175536 15 273 3.2 6.4 0.00 0.00 0.00 79 1014.2
20260504175033 15 327 3.2 6.4 0.00 0.00 0.00 78 1014.4
20260504174531 15 153 4.8 8.0 0.00 0.00 0.00 79 1014.2
20260504174028 15 220 3.2 9.7 0.00 0.00 0.00 77 1014.5
20260504173524 15 109 4.8 6.4 0.00 0.00 0.00 77 1014.5
20260504173022 15 179 8.0 8.0 0.00 0.00 0.00 79 1014.5
20260504172518 15 132 0.0 6.4 0.00 0.00 0.00 79 1014.6
20260504172014 14 151 4.8 8.0 0.00 0.00 0.00 79 1014.4
20260504171512 14 149 8.0 11.3 0.00 0.00 0.00 79 1014.5
20260504171008 14 219 1.6 8.0 0.00 0.00 0.00 79 1014.2
20260504170504 14 203 0.0 4.8 0.00 0.00 0.00 80 1014.7
20260504160425 12 155 11.3 17.7 0.00 0.00 0.00 86 1014.3
20260504150848 11 136 6.4 12.9 0.00 0.00 0.00 89 1014.0
20260504150345 11 111 9.7 12.9 0.00 0.00 0.00 89 1013.9
20260504141315 11 142 8.0 11.3 0.00 0.00 0.00 92 1013.4
20260504140811 10 150 8.0 11.3 0.00 0.00 0.00 92 1013.4
20260504140307 10 145 9.7 11.3 0.00 0.00 0.00 92 1013.5
20260504130736 10 160 9.7 12.9 0.00 0.00 0.00 93 1012.6
20260504130232 10 155 9.7 9.7 0.00 0.00 0.00 93 1012.6